Regional Weather Roundup
Issued by NWS Albany, NY

Home | Current Version | Previous Version | Text Only | Print | Product List | Glossary On
Versions: 1 2 3 4 5 6 7 8 9 10 11 12 13 14 15 16 17 18 19 20 21 22 23 24 25 26 27 28 29 30 31 32 33 34 35 36 37 38 39 40 41 42 43 44 45 46 47 48 49 50
000
ASUS41 KALY 241910
RWRALY

NEW YORK STATE HOURLY WEATHER ROUNDUP
NATIONAL WEATHER SERVICE ALBANY NY
300 PM EDT THU JUL 24 2014

NOTE: "FAIR" INDICATES FEW OR NO CLOUDS BELOW 12,000 FEET WITH NO
SIGNIFICANT WEATHER AND/OR NO OBSTRUCTIONS TO VISIBILITY.

NYZ032-033-038>043-046>054-057>066-NYZ062>081-242000-
EAST


CITY           SKY/WX    TMP DP  RH WIND       PRES   REMARKS
ALBANY         PTSUNNY   76  58  53 N5        29.89F
GLENS FALLS    SUNNY     76  54  46 NE9       29.89F
POUGHKEEPSIE   MOSUNNY   78  58  49 N7        29.86F
NEWBURGH       PTSUNNY   75  59  57 NE12      29.89F
MONTGOMERY     PTSUNNY   79  59  50 N5        29.87F
WHITE PLAINS   CLOUDY    76  56  49 N12G17    29.86F
ISLIP          CLOUDY    80  60  50 NW10      29.83S
NEW YORK CITY  CLOUDY    79  59  50 NE8       29.85F
CENTRAL PARK   PTSUNNY   79  57  46 VRB5      29.88F
$$

NYZ005>009-017-018-044>046-055-056-242000-
CENTRAL


CITY           SKY/WX    TMP DP  RH WIND       PRES   REMARKS
FULTON         SUNNY     69  47  45 NW15      30.01F
SYRACUSE       MOSUNNY   72  49  44 N7        29.99F
ROME           MOSUNNY   72  52  49 W15       29.96F
ELMIRA         PTSUNNY   70  51  51 N14       29.99F
BINGHAMTON     PTSUNNY   67  50  54 NW8       29.99S
MONTICELLO     MOSUNNY   73  52  46 N21       29.94S
$$

NYZ026>034-041>043-242000-
NORTH


CITY           SKY/WX    TMP DP  RH WIND       PRES   REMARKS
WATERTOWN      SUNNY     73  46  38 N8        29.99F
FORT DRUM      NOT AVBL
MASSENA        SUNNY     70  50  49 NW7       29.98F
SARANAC LAKE   MOSUNNY   65  48  54 NW8G16    29.96F
PLATTSBURGH    MOSUNNY   73  51  46 NW12      29.93S
$$

NYZ001>004-010>016-019>021-242000-
WEST


CITY           SKY/WX    TMP DP  RH WIND       PRES   REMARKS
NIAGARA FALLS  MOSUNNY   71  44  37 NE12      30.05F
BUFFALO        MOSUNNY   70  44  39 N7G16     30.05S
DUNKIRK        SUNNY     69  47  45 NW9       30.06F
JAMESTOWN      PTSUNNY   64  50  59 NW13      30.06F
WELLSVILLE     MOSUNNY   69  48  47 N9G20     30.05F
ROCHESTER      MOSUNNY   69  45  41 NW7       30.04F
PENN YAN       SUNNY     69  48  47 NW8       30.02F
$$

             KEY
       WCI = WIND CHILL INDEX
       VSB = VISIBILITY
       HX  = HEAT INDEX
$$



USA.gov is the U.S. government's official web portal to all federal, state and local government web resources and services.